Caldwell, NJ

11:18 AM EST on December 16, 2017 (GMT -0500)
Essex County

Weather History for KCDW - October, 2012

Change the Weather History Date:

Friday, October 19, 2012

  Actual Average Record
Temperature  
Mean Temperature 64 °F -  
Max Temperature 68 °F 62 °F 84 °F (2016)
Min Temperature 60 °F 38 °F 25 °F (1974)
Degree Days  
Heating Degree Days 1    
Growing Degree Days 14 (Base 50)    
Moisture  
Dew Point 61 °F    
Average Humidity 88    
Maximum Humidity 94    
Minimum Humidity 77    
Precipitation  
Precipitation 1.13 in - - ()
Sea Level Pressure  
Sea Level Pressure 29.79 in    
Wind  
Wind Speed 10 mph (SSE)    
Max Wind Speed 17 mph    
Max Gust Speed 33 mph    
Visibility 5 miles    
Events Rain    
Averages and records for this station are not official NWS values.
T = Trace of Precipitation, MM = Missing Value Source: NWS Daily Summary

Daily Weather History Graph

Daily Weather History Graph

Search for Another Location

Airport or City:

Trip Planner

Search our weather history database for the weather conditions in past years. The results will help you decide how hot, cold, wet, or windy it might be!

Date:

Astronomy

Oct. 19, 2012 Rise Set
Actual Time 7:13 AM EDT 6:09 PM EDT
Civil Twilight 6:45 AM EDT 6:37 PM EDT
Nautical Twilight 6:13 AM EDT 7:09 PM EDT
Astronomical Twilight 5:41 AM EDT 7:41 PM EDT
Moon 11:55 AM EDT (10/19) 9:44 PM EDT (10/19)
Length of Visible Light 11h 52m
Length of Day
10h 56m
Waxing Crescent, 23% of the Moon is Illuminated
Oct 19
Waxing Crescent
Oct 21
First Quarter
Oct 29
Full
Nov 6
Last Quarter
Nov 13
New

Hourly Weather History & Observations

Time (EDT) Temp. Dew Point Humidity Pressure Visibility Wind Dir Wind Speed Gust Speed Precip Events Conditions
12:53 AM 60.1 °F 55.0 °F 83% 29.94 in 10.0 mi East 6.9 mph - N/A   Overcast
1:39 AM 60.8 °F 55.4 °F 82% 29.92 in 10.0 mi East 6.9 mph - 0.00 in Rain Light Rain
1:53 AM 61.0 °F 55.9 °F 83% 29.93 in 10.0 mi East 9.2 mph 16.1 mph 0.00 in   Overcast
2:19 AM 64.4 °F 60.8 °F 88% 29.90 in 10.0 mi SSE 13.8 mph 18.4 mph 0.00 in Rain Light Rain
2:48 AM 64.4 °F 60.8 °F 88% 29.89 in 10.0 mi South 8.1 mph - 0.00 in   Overcast
2:53 AM 64.9 °F 60.1 °F 84% 29.90 in 10.0 mi SSE 8.1 mph - 0.00 in   Overcast
3:43 AM 64.4 °F 57.2 °F 77% 29.87 in 10.0 mi SSE 11.5 mph 19.6 mph N/A   Overcast
3:53 AM 64.0 °F 57.9 °F 80% 29.88 in 10.0 mi SSE 10.4 mph - N/A   Overcast
4:53 AM 64.9 °F 59.0 °F 81% 29.88 in 10.0 mi South 12.7 mph 19.6 mph N/A   Overcast
5:53 AM 64.9 °F 60.1 °F 84% 29.86 in 10.0 mi SE 11.5 mph 18.4 mph 0.00 in Rain Light Rain
6:15 AM 64.4 °F 60.8 °F 88% 29.84 in 2.5 mi SE 11.5 mph 20.7 mph 0.04 in Rain Rain
6:40 AM 62.6 °F 60.8 °F 94% 29.84 in 2.0 mi SE 13.8 mph 20.7 mph 0.15 in Rain Rain
6:47 AM 62.6 °F 60.8 °F 94% 29.84 in 3.0 mi SSE 11.5 mph 20.7 mph 0.16 in Rain Light Rain
6:53 AM 64.0 °F 61.0 °F 90% 29.86 in 2.0 mi SSE 13.8 mph 19.6 mph 0.17 in Rain Light Rain
7:09 AM 64.4 °F 60.8 °F 88% 29.83 in 2.0 mi SE 16.1 mph 26.5 mph 0.00 in Rain Light Rain
7:44 AM 64.4 °F 60.8 °F 88% 29.82 in 2.0 mi SSE 11.5 mph 24.2 mph 0.00 in Rain Light Rain
7:53 AM 64.0 °F 61.0 °F 90% 29.84 in 2.0 mi SSE 16.1 mph 21.9 mph 0.05 in Rain Heavy Rain
7:59 AM 64.4 °F 60.8 °F 88% 29.82 in 1.5 mi SSE 11.5 mph 21.9 mph 0.01 in Rain Light Rain
8:07 AM 64.4 °F 60.8 °F 88% 29.82 in 2.5 mi SE 8.1 mph - 0.03 in Rain Rain
8:16 AM 64.4 °F 60.8 °F 88% 29.82 in 1.5 mi SSE 17.3 mph 25.3 mph 0.08 in Rain Rain
8:23 AM 64.4 °F 60.8 °F 88% 29.82 in 2.0 mi SSE 13.8 mph 27.6 mph 0.10 in Rain Light Rain
8:29 AM 64.4 °F 60.8 °F 88% 29.83 in 1.8 mi SSE 15.0 mph 26.5 mph 0.14 in Rain Rain
8:53 AM 64.0 °F 61.0 °F 90% 29.84 in 1.5 mi South 16.1 mph 33.4 mph 0.22 in Rain Rain
9:20 AM 64.4 °F 60.8 °F 88% 29.82 in 3.0 mi SSE 16.1 mph 25.3 mph 0.07 in Rain Light Rain
9:28 AM 64.4 °F 60.8 °F 88% 29.81 in 7.0 mi SSE 13.8 mph 21.9 mph 0.07 in Rain Light Rain
9:53 AM 64.9 °F 61.0 °F 87% 29.83 in 10.0 mi South 10.4 mph 19.6 mph 0.07 in Rain Light Rain
10:38 AM 64.4 °F 62.6 °F 94% 29.80 in 7.0 mi SSE 13.8 mph 17.3 mph 0.00 in Rain Light Rain
10:50 AM 64.4 °F 62.6 °F 94% 29.80 in 2.0 mi SSE 13.8 mph 20.7 mph 0.04 in Rain Rain
10:53 AM 64.9 °F 62.1 °F 90% 29.81 in 2.0 mi South 13.8 mph 21.9 mph 0.05 in Rain Light Rain
11:15 AM 64.4 °F 62.6 °F 94% 29.78 in 4.0 mi SSE 15.0 mph 18.4 mph 0.00 in Rain Light Rain
11:38 AM 64.4 °F 62.6 °F 94% 29.80 in 1.8 mi Variable 5.8 mph - 0.06 in Rain Heavy Rain
11:49 AM 64.4 °F 62.6 °F 94% 29.80 in 1.5 mi South 3.5 mph - 0.12 in Rain Rain
11:53 AM 64.9 °F 62.1 °F 90% 29.81 in 1.5 mi South 5.8 mph - 0.14 in Rain Rain
12:53 PM 64.9 °F 63.0 °F 93% 29.78 in 1.2 mi SSE 5.8 mph - 0.35 in Rain Rain
12:58 PM 64.4 °F 62.6 °F 94% 29.76 in 2.0 mi SE 3.5 mph - 0.01 in Rain Rain
1:05 PM 66.2 °F 62.6 °F 88% 29.76 in 2.5 mi Variable 5.8 mph - 0.02 in Rain Rain
1:14 PM 66.2 °F 62.6 °F 88% 29.75 in 4.0 mi SE 5.8 mph - 0.03 in Rain Light Rain
1:30 PM 66.2 °F 62.6 °F 88% 29.74 in 6.0 mi SSE 16.1 mph 21.9 mph 0.04 in Rain Light Rain
1:40 PM 66.2 °F 62.6 °F 88% 29.74 in 2.0 mi SSE 17.3 mph 24.2 mph 0.07 in Rain Light Rain
1:53 PM 66.9 °F 64.0 °F 90% 29.75 in 3.0 mi South 11.5 mph 20.7 mph 0.08 in Rain Light Rain
2:53 PM 68.0 °F 64.9 °F 90% 29.74 in 10.0 mi SSE 12.7 mph - 0.00 in   Overcast
3:53 PM 68.0 °F 64.0 °F 87% 29.73 in 6.0 mi SSE 10.4 mph - 0.00 in Rain Light Rain
4:12 PM 68.0 °F 64.4 °F 88% 29.70 in 7.0 mi SSE 8.1 mph 18.4 mph 0.00 in   Overcast
4:20 PM 68.0 °F 64.4 °F 88% 29.70 in 7.0 mi South 8.1 mph - 0.00 in   Overcast
4:53 PM 68.0 °F 64.0 °F 87% 29.70 in 7.0 mi SSE 8.1 mph - 0.00 in   Overcast
5:28 PM 68.0 °F 62.6 °F 83% 29.68 in 6.0 mi SSE 6.9 mph - N/A   Haze
5:53 PM 68.0 °F 63.0 °F 84% 29.69 in 7.0 mi South 9.2 mph 16.1 mph N/A   Mostly Cloudy
6:00 PM 68.0 °F 62.6 °F 83% 29.67 in 7.0 mi SSE 6.9 mph 16.1 mph N/A   Mostly Cloudy
6:41 PM 66.2 °F 62.6 °F 88% 29.67 in 9.0 mi SSE 5.8 mph - N/A   Mostly Cloudy
6:53 PM 66.9 °F 63.0 °F 87% 29.68 in 9.0 mi SSE 5.8 mph - N/A   Partly Cloudy
7:44 PM 64.4 °F 62.6 °F 94% 29.66 in 7.0 mi Calm Calm - N/A   Mostly Cloudy
7:53 PM 64.0 °F 62.1 °F 93% 29.68 in 6.0 mi Calm Calm - N/A   Mostly Cloudy
8:53 PM 64.0 °F 62.1 °F 93% 29.68 in 5.0 mi Calm Calm - N/A   Mostly Cloudy
10:53 PM 66.0 °F 63.0 °F 90% 29.69 in 8.0 mi Calm Calm - N/A   Overcast
11:53 PM 66.0 °F 62.1 °F 87% 29.70 in 9.0 mi WSW 4.6 mph - N/A   Mostly Cloudy